Time,TemperatureF,DewpointF,PressureIn,WindDirection,WindDirectionDegrees,WindSpeedMPH,WindSpeedGustMPH,Humidity,HourlyPrecipIn,Conditions,Clouds,dailyrainin,SoftwareType,DateUTC
2013-06-12 00:02:00,53.0,42.0,29.59,SE,135,2.0,3.0,65,0.00,,,0.00,,2013-06-12 07:02:00,
2013-06-12 00:12:00,53.0,42.0,29.58,ESE,113,2.0,4.0,65,0.00,,,0.00,,2013-06-12 07:12:00,
2013-06-12 00:22:00,53.0,42.0,29.59,NNW,338,1.0,4.0,65,0.00,,,0.00,,2013-06-12 07:22:00,
2013-06-12 00:33:00,53.0,42.0,29.59,NNW,338,1.0,4.0,65,0.00,,,0.00,,2013-06-12 07:33:00,
2013-06-12 00:43:00,53.0,42.0,29.59,NNW,338,1.0,4.0,65,0.00,,,0.00,,2013-06-12 07:43:00,
2013-06-12 00:53:00,52.0,42.0,29.59,NNE,23,1.0,3.0,68,0.00,,,0.00,,2013-06-12 07:53:00,
2013-06-12 01:01:00,52.0,42.0,29.59,NNE,23,1.0,3.0,68,0.00,,,0.00,,2013-06-12 08:01:00,
2013-06-12 01:12:00,52.0,42.0,29.59,NNE,23,1.0,3.0,68,0.00,,,0.00,,2013-06-12 08:12:00,
2013-06-12 01:22:00,52.0,42.0,29.59,NNE,23,1.0,3.0,68,0.00,,,0.00,,2013-06-12 08:22:00,
2013-06-12 01:33:00,52.0,42.0,29.59,ESE,113,1.0,3.0,69,0.00,,,0.00,,2013-06-12 08:33:00,
2013-06-12 01:43:00,53.0,43.0,29.59,SE,135,1.0,2.0,69,0.00,,,0.00,,2013-06-12 08:43:00,
2013-06-12 01:53:00,53.0,43.0,29.59,SE,135,1.0,2.0,69,0.00,,,0.00,,2013-06-12 08:53:00,
2013-06-12 02:01:00,53.0,43.0,29.59,ESE,113,2.0,3.0,69,0.00,,,0.00,,2013-06-12 09:01:00,
2013-06-12 02:11:00,52.0,42.0,29.59,East,90,1.0,2.0,69,0.00,,,0.00,,2013-06-12 09:11:00,
2013-06-12 02:22:00,52.0,43.0,29.59,NE,45,1.0,3.0,70,0.00,,,0.00,,2013-06-12 09:22:00,
2013-06-12 02:33:00,53.0,43.0,29.59,ESE,113,1.0,3.0,70,0.00,,,0.00,,2013-06-12 09:33:00,
2013-06-12 02:42:00,53.0,43.0,29.59,SE,135,1.0,2.0,69,0.00,,,0.00,,2013-06-12 09:42:00,
2013-06-12 02:53:00,53.0,43.0,29.59,NNW,338,1.0,2.0,69,0.00,,,0.00,,2013-06-12 09:53:00,
2013-06-12 03:01:00,53.0,43.0,29.59,SE,135,1.0,2.0,69,0.00,,,0.00,,2013-06-12 10:01:00,
2013-06-12 03:11:00,53.0,43.0,29.59,SE,135,1.0,2.0,69,0.00,,,0.00,,2013-06-12 10:11:00,
2013-06-12 03:22:00,53.0,44.0,29.59,SE,135,2.0,3.0,71,0.00,,,0.00,,2013-06-12 10:22:00,
2013-06-12 03:32:00,52.0,43.0,29.59,East,90,2.0,2.0,71,0.00,,,0.00,,2013-06-12 10:32:00,
2013-06-12 03:42:00,52.0,43.0,29.59,SE,135,1.0,2.0,72,0.00,,,0.00,,2013-06-12 10:42:00,
2013-06-12 03:53:00,52.0,43.0,29.59,SE,135,1.0,2.0,72,0.00,,,0.00,,2013-06-12 10:53:00,
2013-06-12 04:01:00,52.0,43.0,29.59,SE,135,1.0,2.0,72,0.00,,,0.00,,2013-06-12 11:01:00,
2013-06-12 04:11:00,52.0,43.0,29.59,East,90,1.0,2.0,72,0.00,,,0.00,,2013-06-12 11:11:00,
2013-06-12 04:24:00,52.0,43.0,29.59,SE,135,1.0,4.0,72,0.00,,,0.00,,2013-06-12 11:24:00,
2013-06-12 04:33:00,52.0,43.0,29.59,East,90,1.0,2.0,72,0.00,,,0.00,,2013-06-12 11:33:00,
2013-06-12 04:42:00,52.0,43.0,29.59,East,90,1.0,2.0,72,0.00,,,0.00,,2013-06-12 11:42:00,
2013-06-12 04:53:00,52.0,43.0,29.59,ESE,113,1.0,1.0,72,0.00,,,0.00,,2013-06-12 11:53:00,
2013-06-12 05:01:00,53.0,44.0,29.60,SSE,158,1.0,1.0,72,0.00,,,0.00,,2013-06-12 12:01:00,
2013-06-12 05:11:00,53.0,44.0,29.60,SSE,158,1.0,1.0,72,0.00,,,0.00,,2013-06-12 12:11:00,
2013-06-12 05:23:00,53.0,44.0,29.60,NNE,23,1.0,2.0,72,0.00,,,0.00,,2013-06-12 12:23:00,
2013-06-12 05:33:00,53.0,44.0,29.60,East,90,1.0,2.0,72,0.00,,,0.00,,2013-06-12 12:33:00,
2013-06-12 05:42:00,53.0,44.0,29.60,ESE,113,1.0,3.0,72,0.00,,,0.00,,2013-06-12 12:42:00,
2013-06-12 05:53:00,52.0,43.0,29.61,SSW,203,1.0,2.0,72,0.00,,,0.00,,2013-06-12 12:53:00,
2013-06-12 06:01:00,52.0,43.0,29.61,SSW,203,1.0,2.0,72,0.00,,,0.00,,2013-06-12 13:01:00,
2013-06-12 06:11:00,52.0,43.0,29.60,SSW,203,2.0,2.0,72,0.00,,,0.00,,2013-06-12 13:11:00,
2013-06-12 06:22:00,53.0,44.0,29.60,East,90,2.0,2.0,72,0.00,,,0.00,,2013-06-12 13:22:00,
2013-06-12 06:32:00,53.0,44.0,29.60,ESE,113,2.0,3.0,72,0.00,,,0.00,,2013-06-12 13:32:00,
2013-06-12 06:43:00,53.0,44.0,29.60,ENE,68,1.0,2.0,72,0.00,,,0.00,,2013-06-12 13:43:00,
2013-06-12 06:53:00,53.0,44.0,29.60,ENE,68,1.0,2.0,72,0.00,,,0.00,,2013-06-12 13:53:00,
2013-06-12 07:01:00,53.0,44.0,29.60,ENE,68,1.0,2.0,72,0.00,,,0.00,,2013-06-12 14:01:00,
2013-06-12 07:11:00,54.0,45.0,29.61,SE,135,1.0,2.0,71,0.00,,,0.00,,2013-06-12 14:11:00,
2013-06-12 07:23:00,54.0,45.0,29.61,SE,135,1.0,2.0,71,0.00,,,0.00,,2013-06-12 14:23:00,
2013-06-12 07:33:00,54.0,45.0,29.61,SE,135,1.0,2.0,71,0.00,,,0.00,,2013-06-12 14:33:00,
2013-06-12 07:43:00,55.0,43.0,29.60,NNE,23,2.0,2.0,64,0.00,,,0.00,,2013-06-12 14:43:00,
2013-06-12 07:53:00,55.0,43.0,29.60,NNE,23,2.0,2.0,64,0.00,,,0.00,,2013-06-12 14:53:00,
2013-06-12 08:01:00,57.0,44.0,29.60,ESE,113,1.0,2.0,62,0.00,,,0.00,,2013-06-12 15:01:00,
2013-06-12 08:11:00,57.0,43.0,29.60,North,0,1.0,2.0,60,0.00,,,0.00,,2013-06-12 15:11:00,
2013-06-12 08:23:00,58.0,43.0,29.60,East,90,1.0,3.0,58,0.00,,,0.00,,2013-06-12 15:23:00,
2013-06-12 08:32:00,58.0,43.0,29.60,East,90,1.0,3.0,58,0.00,,,0.00,,2013-06-12 15:32:00,
2013-06-12 08:43:00,61.0,44.0,29.60,SW,225,2.0,5.0,53,0.00,,,0.00,,2013-06-12 15:43:00,
2013-06-12 09:32:00,64.0,42.0,29.61,ESE,113,2.0,3.0,45,0.00,,,0.00,,2013-06-12 16:32:00,
2013-06-12 10:32:00,63.0,41.0,29.62,West,270,3.0,3.0,45,0.00,,,0.00,,2013-06-12 17:32:00,
2013-06-12 10:42:00,63.0,41.0,29.62,West,270,3.0,3.0,45,0.00,,,0.00,,2013-06-12 17:42:00,
2013-06-12 10:52:00,62.0,40.0,29.61,SE,135,3.0,4.0,44,0.00,,,0.00,,2013-06-12 17:52:00,
2013-06-12 11:02:00,64.0,42.0,29.61,SE,135,3.0,4.0,44,0.00,,,0.00,,2013-06-12 18:02:00,
2013-06-12 11:12:00,64.0,42.0,29.61,SE,135,3.0,4.0,44,0.00,,,0.00,,2013-06-12 18:12:00,
2013-06-12 11:22:00,64.0,42.0,29.61,SE,135,3.0,4.0,44,0.00,,,0.00,,2013-06-12 18:22:00,
2013-06-12 11:32:00,66.0,40.0,29.61,SW,225,2.0,3.0,39,0.00,,,0.00,,2013-06-12 18:32:00,
2013-06-12 11:43:00,66.0,41.0,29.60,NE,45,3.0,3.0,40,0.00,,,0.00,,2013-06-12 18:43:00,
2013-06-12 11:53:00,66.0,40.0,29.60,SW,225,3.0,8.0,39,0.00,,,0.00,,2013-06-12 18:53:00,
2013-06-12 12:01:00,64.0,39.0,29.61,SW,225,3.0,6.0,40,0.00,,,0.00,,2013-06-12 19:01:00,
2013-06-12 12:11:00,63.0,39.0,29.61,West,270,3.0,6.0,41,0.00,,,0.00,,2013-06-12 19:11:00,
2013-06-12 12:22:00,63.0,39.0,29.61,West,270,3.0,6.0,41,0.00,,,0.00,,2013-06-12 19:22:00,
2013-06-12 12:32:00,65.0,41.0,29.60,East,90,1.0,3.0,41,0.00,,,0.00,,2013-06-12 19:32:00,
2013-06-12 12:42:00,64.0,40.0,29.60,West,270,2.0,2.0,42,0.00,,,0.00,,2013-06-12 19:42:00,
2013-06-12 12:52:00,63.0,40.0,29.60,ESE,113,2.0,2.0,43,0.00,,,0.00,,2013-06-12 19:52:00,
2013-06-12 13:01:00,68.0,43.0,29.60,ESE,113,2.0,3.0,41,0.00,,,0.00,,2013-06-12 20:01:00,
2013-06-12 13:11:00,68.0,43.0,29.60,ESE,113,2.0,3.0,41,0.00,,,0.00,,2013-06-12 20:11:00,
2013-06-12 13:21:00,68.0,42.0,29.59,SW,225,3.0,7.0,39,0.00,,,0.00,,2013-06-12 20:21:00,
2013-06-12 13:32:00,68.0,42.0,29.59,SW,225,3.0,7.0,39,0.00,,,0.00,,2013-06-12 20:32:00,
2013-06-12 13:42:00,68.0,42.0,29.59,SW,225,3.0,7.0,39,0.00,,,0.00,,2013-06-12 20:42:00,
2013-06-12 13:54:00,68.0,42.0,29.59,SW,225,3.0,7.0,39,0.00,,,0.00,,2013-06-12 20:54:00,
2013-06-12 14:21:00,69.0,40.0,29.60,East,90,3.0,6.0,35,0.00,,,0.00,,2013-06-12 21:21:00,
2013-06-12 14:33:00,70.0,40.0,29.60,SW,225,2.0,3.0,34,0.00,,,0.00,,2013-06-12 21:33:00,
2013-06-12 14:43:00,69.0,39.0,29.60,ENE,68,2.0,3.0,34,0.00,,,0.00,,2013-06-12 21:43:00,
2013-06-12 14:52:00,69.0,40.0,29.60,SSW,203,2.0,3.0,35,0.00,,,0.00,,2013-06-12 21:52:00,
2013-06-12 15:01:00,69.0,40.0,29.60,SSW,203,2.0,3.0,35,0.00,,,0.00,,2013-06-12 22:01:00,
2013-06-12 15:11:00,69.0,40.0,29.60,SSW,203,2.0,3.0,35,0.00,,,0.00,,2013-06-12 22:11:00,
2013-06-12 15:22:00,68.0,39.0,29.59,West,270,3.0,9.0,35,0.00,,,0.00,,2013-06-12 22:22:00,
2013-06-12 15:32:00,68.0,39.0,29.59,West,270,3.0,9.0,35,0.00,,,0.00,,2013-06-12 22:32:00,
2013-06-12 15:43:00,69.0,39.0,29.59,NW,315,4.0,7.0,33,0.00,,,0.00,,2013-06-12 22:43:00,
2013-06-12 15:52:00,70.0,39.0,29.59,SW,225,4.0,7.0,32,0.00,,,0.00,,2013-06-12 22:52:00,
2013-06-12 16:01:00,69.0,39.0,29.59,WSW,248,3.0,6.0,33,0.00,,,0.00,,2013-06-12 23:01:00,
2013-06-12 16:11:00,67.0,38.0,29.59,SSE,158,4.0,6.0,35,0.00,,,0.00,,2013-06-12 23:11:00,
2013-06-12 16:22:00,67.0,38.0,29.59,SSE,158,4.0,6.0,35,0.00,,,0.00,,2013-06-12 23:22:00,
2013-06-12 16:32:00,67.0,38.0,29.59,SSE,158,4.0,6.0,35,0.00,,,0.00,,2013-06-12 23:32:00,
2013-06-12 16:42:00,67.0,38.0,29.59,SSE,158,4.0,6.0,35,0.00,,,0.00,,2013-06-12 23:42:00,
2013-06-12 16:52:00,67.0,38.0,29.59,SSE,158,4.0,6.0,35,0.00,,,0.00,,2013-06-12 23:52:00,
2013-06-12 17:11:00,69.0,40.0,29.59,West,270,6.0,9.0,35,0.00,,,0.00,,2013-06-13 00:11:00,
2013-06-12 17:22:00,69.0,40.0,29.59,West,270,6.0,9.0,35,0.00,,,0.00,,2013-06-13 00:22:00,
2013-06-12 17:32:00,69.0,41.0,29.60,SW,225,5.0,10.0,36,0.00,,,0.00,,2013-06-13 00:32:00,
2013-06-12 17:42:00,66.0,40.0,29.60,SSW,203,5.0,7.0,39,0.00,,,0.00,,2013-06-13 00:42:00,
2013-06-12 17:52:00,66.0,40.0,29.60,East,90,4.0,8.0,38,0.00,,,0.00,,2013-06-13 00:52:00,
2013-06-12 18:01:00,66.0,40.0,29.60,East,90,4.0,8.0,38,0.00,,,0.00,,2013-06-13 01:01:00,
2013-06-12 18:11:00,66.0,40.0,29.60,East,90,4.0,8.0,38,0.00,,,0.00,,2013-06-13 01:11:00,
2013-06-12 18:22:00,64.0,39.0,29.60,SW,225,4.0,6.0,40,0.00,,,0.00,,2013-06-13 01:22:00,
2013-06-12 18:32:00,63.0,39.0,29.60,NNW,338,3.0,3.0,41,0.00,,,0.00,,2013-06-13 01:32:00,
2013-06-12 18:42:00,64.0,41.0,29.60,SE,135,1.0,3.0,43,0.00,,,0.00,,2013-06-13 01:42:00,
2013-06-12 18:53:00,64.0,41.0,29.60,SE,135,1.0,3.0,43,0.00,,,0.00,,2013-06-13 01:53:00,
2013-06-12 19:01:00,64.0,42.0,29.60,WSW,248,1.0,4.0,45,0.00,,,0.00,,2013-06-13 02:01:00,
2013-06-12 19:11:00,64.0,42.0,29.60,WSW,248,1.0,4.0,45,0.00,,,0.00,,2013-06-13 02:11:00,
2013-06-12 19:22:00,64.0,42.0,29.60,WSW,248,1.0,4.0,45,0.00,,,0.00,,2013-06-13 02:22:00,
2013-06-12 19:32:00,64.0,42.0,29.60,WSW,248,1.0,4.0,45,0.00,,,0.00,,2013-06-13 02:32:00,
2013-06-12 19:43:00,63.0,42.0,29.60,ESE,113,2.0,7.0,47,0.00,,,0.00,,2013-06-13 02:43:00,
2013-06-12 19:52:00,62.0,42.0,29.60,East,90,1.0,3.0,48,0.00,,,0.00,,2013-06-13 02:52:00,
2013-06-12 20:01:00,62.0,42.0,29.60,East,90,1.0,3.0,48,0.00,,,0.00,,2013-06-13 03:01:00,
2013-06-12 20:11:00,62.0,42.0,29.62,ENE,68,2.0,3.0,47,0.00,,,0.00,,2013-06-13 03:11:00,
2013-06-12 20:22:00,62.0,42.0,29.62,ENE,68,2.0,3.0,47,0.00,,,0.00,,2013-06-13 03:22:00,
2013-06-12 20:33:00,61.0,42.0,29.60,SSW,203,2.0,3.0,50,0.00,,,0.00,,2013-06-13 03:33:00,
2013-06-12 20:42:00,60.0,41.0,29.61,SSW,203,3.0,7.0,50,0.00,,,0.00,,2013-06-13 03:42:00,
2013-06-12 20:52:00,60.0,42.0,29.61,SW,225,4.0,9.0,52,0.00,,,0.00,,2013-06-13 03:52:00,
2013-06-12 21:01:00,60.0,43.0,29.61,SW,225,3.0,9.0,54,0.00,,,0.00,,2013-06-13 04:01:00,
2013-06-12 21:11:00,60.0,43.0,29.61,SW,225,3.0,9.0,54,0.00,,,0.00,,2013-06-13 04:11:00,
2013-06-12 21:22:00,59.0,43.0,29.61,ENE,68,2.0,4.0,55,0.00,,,0.00,,2013-06-13 04:22:00,
2013-06-12 21:32:00,58.0,43.0,29.61,ESE,113,1.0,1.0,58,0.00,,,0.00,,2013-06-13 04:32:00,
2013-06-12 21:43:00,58.0,44.0,29.61,East,90,1.0,2.0,59,0.00,,,0.00,,2013-06-13 04:43:00,
2013-06-12 21:53:00,57.0,44.0,29.61,East,90,2.0,3.0,62,0.00,,,0.00,,2013-06-13 04:53:00,
2013-06-12 22:01:00,57.0,45.0,29.62,East,90,2.0,3.0,64,0.00,,,0.00,,2013-06-13 05:01:00,
2013-06-12 22:11:00,57.0,46.0,29.62,ESE,113,2.0,2.0,66,0.00,,,0.00,,2013-06-13 05:11:00,
2013-06-12 22:23:00,56.0,45.0,29.62,East,90,1.0,2.0,66,0.00,,,0.00,,2013-06-13 05:23:00,
2013-06-12 22:32:00,56.0,45.0,29.62,South,180,1.0,2.0,67,0.00,,,0.00,,2013-06-13 05:32:00,
2013-06-12 22:42:00,56.0,46.0,29.63,ESE,113,1.0,2.0,68,0.00,,,0.00,,2013-06-13 05:42:00,
2013-06-12 22:52:00,56.0,46.0,29.63,ESE,113,1.0,2.0,68,0.00,,,0.00,,2013-06-13 05:52:00,
2013-06-12 23:01:00,56.0,46.0,29.63,ESE,113,1.0,2.0,68,0.00,,,0.00,,2013-06-13 06:01:00,
2013-06-12 23:11:00,56.0,46.0,29.63,ESE,113,1.0,2.0,68,0.00,,,0.00,,2013-06-13 06:11:00,
2013-06-12 23:21:00,55.0,46.0,29.63,SE,135,2.0,2.0,72,0.00,,,0.00,,2013-06-13 06:21:00,
2013-06-12 23:33:00,55.0,46.0,29.63,SE,135,2.0,2.0,72,0.00,,,0.00,,2013-06-13 06:33:00,
2013-06-12 23:44:00,54.0,46.0,29.63,East,90,2.0,3.0,73,0.00,,,0.00,,2013-06-13 06:44:00,
2013-06-12 23:52:00,54.0,46.0,29.63,SSE,158,2.0,4.0,74,0.00,,,0.00,,2013-06-13 06:52:00,